Portada
METAR-TAF:

METAR-TAF

Aeropuertos :

Arauca, Colombia

Aeropuerto Santiago Pérez Quiroz

latitud: 07-04N, longitud: 070-44W, altitud: 128 m

Observación

El informe se hizo hace 1 hora y 12 minutos, a las 22:00 UTC
Viento calma
Temperatura 34°C
Humedad 50%
Presión 1007 hPa
Visibilidad 10 km o más
Nubes dispersas a una altura de 1700 ft

METAR: SKUC 212200Z 00000KT 9999 SCT017 34/22 A2975

Hora: 18:12 (23:12 UTC)


TAF: falta

Observaciones y pronósticos meteorológicos de más de 4000 aeropuertos (mensajes METAR y TAF).

Los puntos amarillos y rojos representan las estaciones disponibles.

Ponga el ratón en el punto deseado para ver el nombre de la estación.

Haga clic para ver las observaciones y los pronósticos meteorológicos.

Para cambiar el mapa : haga clic en los botones verdes con una cruz de color negro para hacer un zoom, en el botón verde con un guión para alejar o en las flechas verdes para mapas adyacentes.


METAR-TAF: